Regional Weather Roundup
Issued by NWS Grand Forks, ND

Home | Current Version | Previous Version | Text Only | Print | Product List | Glossary Off
Versions: 1 2 3 4 5 6 7 8 9 10 11 12 13 14 15 16 17 18 19 20 21 22 23 24 25 26 27 28 29 30 31 32 33 34 35 36 37 38 39 40 41 42 43 44 45 46 47 48 49 50

000
ASUS43 KFGF 180210
RWRFGF
PRAIRIE TO PINES  WEATHER ROUNDUP
NATIONAL WEATHER SERVICE EASTERN NORTH DAKOTA/GRAND FORKS ND
900 PM CDT THU APR 17 2014

 **SATELLITE DATA USED TO AUGMENT SKY COVER AT AUTOMATED STATIONS**
 *****  WEATHER ACROSS EASTERN NORTH DAKOTA  *****

CITY           SKY/WX    TMP DP  RH WIND       PRES   REMARKS
GRAND FORKS    MOCLDY    33  19  56 N5        30.30R
GRAND FRKS AFB MOCLDY    33  11  40 E6        30.29S
GRAND FRKS NWS   N/A     34 N/A N/A N2          N/A
DEVILS LAKE    CLOUDY    36  14  41 E14G20    30.22S
FARGO          PTCLDY    38  17  42 NE6       30.28R
WAHPETON ARPT  CLEAR     37  14  38 E3        30.28R
$$

 ***** WEATHER ACROSS CENTRAL AND WESTERN NORTH DAKOTA  *****

CITY           SKY/WX    TMP DP  RH WIND       PRES   REMARKS
BISMARCK       CLOUDY    42  25  50 S9        30.14S
MINOT          CLOUDY    37  21  52 E10       30.13S
JAMESTOWN      CLOUDY    36  19  50 E8        30.20S
MINOT AFB      CLOUDY    37  23  56 E13       30.12F
GARRISON         N/A     39  24  55 SE10      30.11S
WILLISTON      CLOUDY    41  27  57 SE8       30.02F
DICKINSON      MOCLDY    40  25  55 SE14      30.00S
HETTINGER      PTCLDY    40  28  62 E12       30.02S
$$

 *****  OTHER AIRPORT OBSERVATIONS IN OUR AREA  *****

CITY           SKY/WX    TMP DP  RH WIND       PRES   REMARKS
WALHALLA         N/A     32  14  47 E3        30.30R
GRAFTON AIRPOR FAIR      34  18  51 CALM      30.30S
VALLEY CITY AR NOT AVBL
CANDO          CLOUDY    36  18  48 SE10      30.23R
CAVALIER APRT  FAIR      34  16  47 CALM      30.31R
GWINNER        CLEAR     34  19  55 E8        30.25S
SHEYENNE NWR     N/A     31  17  57 E6        29.95
ROLLA          CLOUDY    32  18  55 SE9       30.21S WCI  24
 ***** THE ABOVE OBSERVATIONS ARE NON NWS ARE NOT QUALITY
       CONTROLLED AND MAY MIS-REPORT RAIN FOR SNOW...
$$

  *****  WEATHER ACROSS NORTHERN MINNESOTA  *****

CITY           SKY/WX    TMP DP  RH WIND       PRES   REMARKS
FLAG ISLAND    CLEAR     30   7  37 SW3       30.29R
WARROAD        CLEAR     28  14  54 CALM      30.30S
ROSEAU         CLEAR     34  12  40 E6        30.29R
HALLOCK        CLOUDY    34  16  47 N6        30.30S
THF RVR FALLS  MOCLDY    34  19  55 NW8       30.29R
BAUDETTE       CLEAR     30  11  45 NW5       30.29R
WASKISH        CLEAR     32  14  47 N3        30.28R
CROOKSTON      MOCLDY    36  25  64 NW6       30.31R
$$
  *****  WEATHER ACROSS CENTRAL AND WEST MINNESOTA  *****

CITY           SKY/WX    TMP DP  RH WIND       PRES   REMARKS
FOSSTON        MOCLDY    30  18  59 CALM      30.27S
BEMIDJI        MOCLDY    34   5  29 CALM      30.25S
PARK RAPIDS    CLEAR     31  11  43 W5        30.24R
ELBOW LAKE     FAIR      34  24  68 NW3       30.27R
WADENA         CLEAR     34  18  51 W6        30.25S
DETROIT LAKES  CLEAR     36  19  51 NW6       30.27S
MOORHEAD       NOT AVBL
FERGUS FALLS   CLEAR     34  16  47 NW6       30.26R
MORRIS MN      CLEAR     34  25  69 S3        30.28R
STAPLES        CLEAR     30  18  59 W6        30.25R WCI  24
$$
  *****  WEATHER ELSEWHERE ACROSS MINNESOTA  *****

CITY           SKY/WX    TMP DP  RH WIND       PRES   REMARKS
DULUTH         PTCLDY    32  20  61 N3        30.27R
INTRNTL FALLS  CLEAR     29  19  66 E6        30.27R WCI  23
ELY            CLOUDY    30  21  69 CALM      30.27S
CLOQUET        CLEAR     30  21  69 CALM      30.29R
WHEATON        CLEAR     39  21  48 S3        30.30R
BRAINERD       CLEAR     37  19  48 S7        30.26R
HIBBING        CLEAR     30  20  66 CALM      30.28R
ALEXANDRIA     CLEAR     35  17  47 S6        30.27R
SAINT CLOUD    CLEAR     35  23  61 SW6       30.29R
MINNEAPOLIS    CLEAR     37  25  61 W5        30.31R
$$

  *****  WEATHER ACROSS SOUTH DAKOTA  *****

CITY           SKY/WX    TMP DP  RH WIND       PRES   REMARKS
SIOUX FALLS    MOCLDY    40  25  55 E9        30.26R
BROOKINGS      NOT AVBL
WATERTOWN      PTCLDY    32  19  58 SE7       30.24S
HURON          CLOUDY    41  26  55 SE8       30.22F
SISSETON         N/A     32  24  72 S10       30.26R WCI  24
ABERDEEN       PTCLDY    30  18  60 S9        30.23S WCI  22
MITCHELL       CLOUDY    44  24  45 SE8       30.23S
PIERRE         PTCLDY    39  24  55 E14       30.10F
MOBRIDGE       MOCLDY    38  22  52 SE13      30.12S
RAPID CITY     PTCLDY    47  35  63 SE14      29.96S
$$

  *****  SOME WEATHER IN NEARBY STATES *****

CITY           SKY/WX    TMP DP  RH WIND       PRES   REMARKS
GLASGOW MT     CLOUDY    51  34  52 E18       29.82F
GREAT FALLS MT CLOUDY    53  37  54 W10       29.71F
CHEYENNE WY    CLEAR     50  24  36 S13       30.00R
SCOTTSBLUFF NE CLEAR     54  37  52 SE15      29.96S
OMAHA NE       PTCLDY    49  26  41 E5        30.25R
DES MOINES IA  CLEAR     50  29  44 E6        30.28R
DAVENPORT IA   MOCLDY    45  34  65 W8        30.28R
CHICAGO IL     CLOUDY    54  37  52 W6        30.24R
EAU CLAIRE WI  CLEAR     33  26  75 NE3       30.30R
LA CROSSE WI   CLOUDY    40  29  64 N7        30.30R
$$

  *****  SOME NATIONAL WEATHER *****

CITY           SKY/WX    TMP DP  RH WIND       PRES   REMARKS
LA GUARDIA NY  PTCLDY    40  28  62 E8        30.64F
RALEIGH NC     PTCLDY    53  39  59 E10       30.46R
ATLANTA GA     CLOUDY    60  39  45 E12       30.32S
NEW ORLEANS LA CLOUDY    64  59  83 E12       30.12S
OKLAHOMA CITY  CLOUDY    53  42  66 NE8       30.22R
ALBUQUERQUE NM PTCLDY    65  20  17 SE5       30.09R
SALT LAKE CITY PTCLDY    68  26  20 S12       29.85F
LOS ANGELES CA CLOUDY    62  53  72 W6        29.86S
BOISE ID       CLOUDY    73  32  22 SW8       29.65R
SEATTLE WA     RAIN      50  48  93 SE8       29.74F FOG
$$

*** WEATHER ACROSS MANITOBA...SASKATCHEWAN AND ONTARIO ***
                ***ONTARIO***

CITY           SKY/WX    TMP DP  RH WIND       PRES   REMARKS
GERALDTON      LGT SNOW  28  27  93 NE6       30.26  WCI  22
THUNDER BAY    LGT SNOW  32  30  93 W2        30.26R
SIOUX LOOKOUT  PTCLDY    28  19  69 S7        30.29R WCI  21
TORONTO        MOCLDY    41  27  56 E3        30.36F
BIG TROUT LK   CLEAR     21   1  42 CALM      30.30S
PICKLE LAKE    MOCLDY    32  -2  23 N5        30.28R
DRYDEN         CLEAR     28  18  64 SE7       30.28R WCI  21
KENORA         CLEAR     34   3  27 N3        30.29R
$$
                *** MANITOBA***

CITY           SKY/WX    TMP DP  RH WIND       PRES   REMARKS
BRANDON        PTCLDY    28  21  74 E12       30.26R WCI  18
DAUPHIN        CLEAR     28  18  64 SE12      30.27R WCI  18
ISLAND LAKE    PTCLDY    27  14  59 CALM      30.32R
PILOT MOUND      N/A     32  16  51 E10         N/A  WCI  24
THE PAS        PTCLDY    27   9  46 SE5       30.28S WCI  21
THOMPSON       CLEAR     25  12  58 W3        30.27S
WINNIPEG       CLEAR     27   9  46 NE7       30.33S WCI  19
LYNN LAKE      CLEAR     30   1  29 NE3       30.23S
CHURCHILL      PTCLDY    18  14  86 N8        30.28R WCI   7
GILLAM         PTCLDY    28   9  43 W7        30.28R WCI  21
$$
                ***SASKATCHEWAN***

CITY           SKY/WX    TMP DP  RH WIND       PRES   REMARKS
ESTEVAN        CLOUDY    36  21  55 SE14      30.08F
KINDERSLEY     CLOUDY    41  32  70 E20G29    29.78S
LLOYDMINSTER   FLURRIES  30  27  86 E15       29.88S WCI  19
PRINCE ALBERT  CLOUDY    32  21  64 E14G23    30.09F WCI  22
REGINA         NOT AVBL
YORKTON        CLEAR     28  19  69 E13       30.17F WCI  18
N. BATTLEFORD  CLOUDY    32  28  86 E23G30    29.93F WCI  19
LA RONGE       PTCLDY    32  10  40 SE5       30.16R
SASKATOON      CLOUDY    37  25  60 SE21G29   29.98F
SWIFT CURRENT  LGT RAIN  45  34  65 SE10      29.81R
$$
NOTE: THESE ARE AUTOMATED STATIONS WITH LIMITED QUALITY CONTROL
      "FAIR" INDICATES FEW OR NO CLOUDS BELOW 12,000 FEET WITH NO
      SIGNIFICANT WEATHER AND/OR OBSTRUCTIONS TO VISIBILITY.
      SKY/WX - SKY CONDITION AND SIGNIFICANT WEATHER.
      TMP - AIR TEMPERATURE.    DP   - DEWPOINT TEMPERATURE.
      RH  - RELATIVE HUMIDITY.  PRES - PRESSURE.
      HX  - HEAT INDEX.         WCI  - WIND CHILL INDEX.
$



USA.gov is the U.S. government's official web portal to all federal, state and local government web resources and services.